IONIA-WX Weather Reports


time (UTC)temp
C
wind
direction
speed
KPH
gust
KPH
rain 1hr
cm
rain 24hr
cm
rain mn
cm
humidity
%
barometer
mb
20260502220040 9 271 16.1 0.0 0.00 0.00 0.00 34 987.4
20260502214518 9 279 16.1 0.0 0.00 0.00 0.00 34 987.6
20260502213036 9 275 12.9 0.0 0.00 0.00 0.00 38 987.4
20260502211517 8 273 14.5 0.0 0.00 0.00 0.00 38 987.4
20260502210043 8 269 16.1 0.0 0.00 0.00 0.00 38 987.4
20260502204517 8 261 16.1 0.0 0.00 0.00 0.00 40 987.6
20260502203035 8 261 17.7 0.0 0.00 0.00 0.00 43 988.0
20260502201517 8 262 16.1 0.0 0.00 0.00 0.00 43 988.0
20260502200041 8 259 14.5 0.0 0.00 0.00 0.00 43 988.0
20260502194517 8 262 14.5 0.0 0.00 0.00 0.00 44 988.5
20260502193030 8 266 16.1 0.0 0.00 0.00 0.00 44 988.5
20260502191517 8 264 16.1 0.0 0.00 0.00 0.00 44 988.5
20260502190041 8 273 14.5 0.0 0.00 0.00 0.00 44 988.5
20260502184517 8 279 16.1 0.0 0.00 0.00 0.00 44 988.6
20260502183037 8 275 14.5 0.0 0.00 0.00 0.00 42 988.6
20260502181517 7 277 14.5 0.0 0.00 0.00 0.00 42 988.6
20260502163037 7 280 16.1 0.0 0.00 0.00 0.00 41 987.9
20260502161518 6 283 14.5 0.0 0.00 0.00 0.00 41 987.9
20260502151518 5 289 12.9 0.0 0.00 0.00 0.00 45 988.2
20260502123035 1 322 9.7 0.0 0.00 0.00 0.00 79 988.8
20260502121517 1 324 9.7 0.0 0.00 0.00 0.00 79 988.8
20260502114517 0 321 8.0 0.0 0.00 0.00 0.00 86 988.7
20260502113038 0 323 6.4 0.0 0.00 0.00 0.00 88 988.5
20260502111518 0 321 6.4 0.0 0.00 0.00 0.00 88 988.5
20260502110043 0 319 6.4 0.0 0.00 0.00 0.00 88 988.5
20260502104517 0 313 6.4 0.0 0.00 0.00 0.00 86 988.3
20260502103036 0 319 6.4 0.0 0.00 0.00 0.00 88 988.6
20260502101518 0 325 6.4 0.0 0.00 0.00 0.00 88 988.6
20260502091517 0 326 8.0 0.0 0.00 0.00 0.00 85 988.2
20260502071517 0 326 9.7 0.0 0.00 0.00 0.00 72 987.6
20260502070039 0 326 9.7 0.0 0.00 0.00 0.00 72 987.6
20260502064517 0 322 9.7 0.0 0.00 0.00 0.00 65 988.3
20260502063037 0 328 9.7 0.0 0.00 0.00 0.00 69 988.2
20260502061517 0 328 9.7 0.0 0.00 0.00 0.00 69 988.2
20260502060047 0 330 11.3 0.0 0.00 0.00 0.00 69 988.2
20260502054517 1 332 11.3 0.0 0.00 0.00 0.00 63 987.6
20260502053036 1 331 11.3 0.0 0.00 0.00 0.00 67 988.2
20260502051517 1 328 12.9 0.0 0.00 0.00 0.00 67 988.2
20260502050043 2 331 11.3 0.0 0.00 0.00 0.00 67 988.2
20260502044518 2 328 11.3 0.0 0.00 0.00 0.00 68 987.5
20260502043035 2 324 9.7 0.0 0.00 0.00 0.00 68 987.6
20260502041517 1 330 9.7 0.0 0.00 0.00 0.00 68 987.6
20260502040041 1 332 11.3 0.0 0.00 0.00 0.00 68 987.6
20260502034517 1 331 9.7 0.0 0.00 0.00 0.00 60 987.4
20260502033036 2 342 11.3 0.0 0.00 0.00 0.00 70 986.9
20260502031517 2 347 12.9 0.0 0.00 0.00 0.00 70 986.9
20260502030042 2 343 12.9 0.0 0.00 0.00 0.00 70 986.9
20260502024517 2 335 9.7 0.0 0.00 0.00 0.00 60 986.2
20260502023035 2 338 11.3 0.0 0.00 0.00 0.00 68 987.0
20260502021517 2 334 9.7 0.0 0.00 0.00 0.00 68 987.0
20260502020038 2 332 9.7 0.0 0.00 0.00 0.00 68 987.0
20260502014517 2 334 9.7 0.0 0.00 0.00 0.00 62 986.9
20260502013033 3 328 9.7 0.0 0.00 0.00 0.00 62 986.9
20260502011516 4 328 11.3 0.0 0.00 0.00 0.00 62 987.0
20260502010035 4 329 11.3 0.0 0.00 0.00 0.00 62 987.0
20260502004516 4 328 9.7 0.0 0.00 0.00 0.00 54 987.5
20260502003034 5 323 14.5 0.0 0.00 0.00 0.00 57 988.1
20260502001517 5 321 14.5 0.0 0.00 0.00 0.00 57 988.1
20260502000043 5 314 14.5 0.0 0.00 0.00 0.00 57 988.1
20260501234517 5 301 11.3 0.0 0.00 0.00 0.00 49 986.7
20260501233030 6 308 12.9 0.0 0.00 0.00 0.00 47 987.4
20260501231517 6 300 12.9 0.0 0.00 0.00 0.00 47 987.4
20260501230038 6 290 12.9 0.0 0.00 0.00 0.00 47 987.4
20260501224517 6 293 12.9 0.0 0.00 0.00 0.00 49 986.2
20260501223034 6 273 12.9 0.0 0.00 0.00 0.00 52 987.2
20260501221517 6 275 11.3 0.0 0.00 0.00 0.00 52 987.2